TimeEST,TemperatureF,Dew PointF,Humidity,Sea Level PressureIn,VisibilityMPH,Wind Direction,Wind SpeedMPH,Gust SpeedMPH,PrecipitationIn,Events,Conditions,WindDirDegrees,DateUTC
12:15 AM,21.2,17.6,86,30.40,10.0,NNE,4.6,-,N/A,,Clear,30,2012-12-13 05:15:00
12:35 AM,21.2,17.6,86,30.41,8.0,North,3.5,-,N/A,,Clear,10,2012-12-13 05:35:00
12:55 AM,21.2,19.4,93,30.40,9.0,NE,3.5,-,N/A,,Clear,40,2012-12-13 05:55:00
1:15 AM,21.2,19.4,93,30.40,9.0,NE,3.5,-,N/A,,Clear,40,2012-12-13 06:15:00
1:35 AM,21.2,17.6,86,30.40,8.0,NE,4.6,-,N/A,,Clear,40,2012-12-13 06:35:00
1:55 AM,21.2,17.6,86,30.40,8.0,NE,3.5,-,N/A,,Clear,50,2012-12-13 06:55:00
2:15 AM,21.2,17.6,86,30.40,8.0,NE,4.6,-,N/A,,Clear,40,2012-12-13 07:15:00
2:35 AM,21.2,17.6,86,30.40,9.0,NNE,4.6,-,N/A,,Clear,30,2012-12-13 07:35:00
2:55 AM,21.2,17.6,86,30.40,8.0,Calm,Calm,-,N/A,,Clear,0,2012-12-13 07:55:00
3:15 AM,23.0,19.4,86,30.40,10.0,Calm,Calm,-,N/A,,Clear,0,2012-12-13 08:15:00
3:35 AM,21.2,17.6,86,30.39,9.0,Calm,Calm,-,N/A,,Clear,0,2012-12-13 08:35:00
3:55 AM,21.2,17.6,86,30.39,8.0,Calm,Calm,-,N/A,,Clear,0,2012-12-13 08:55:00
4:15 AM,19.4,15.8,86,30.38,7.0,NNE,3.5,-,N/A,,Clear,30,2012-12-13 09:15:00
4:35 AM,19.4,17.6,93,30.38,7.0,NNE,4.6,-,N/A,,Clear,30,2012-12-13 09:35:00
4:55 AM,19.4,17.6,93,30.39,7.0,NNE,4.6,-,N/A,,Clear,30,2012-12-13 09:55:00
5:15 AM,19.4,15.8,86,30.39,7.0,NE,3.5,-,N/A,,Clear,50,2012-12-13 10:15:00
5:35 AM,19.4,15.8,86,30.40,8.0,Calm,Calm,-,N/A,,Clear,0,2012-12-13 10:35:00
5:55 AM,19.4,15.8,86,30.40,8.0,NNE,4.6,-,N/A,,Clear,20,2012-12-13 10:55:00
6:15 AM,17.6,15.8,93,30.40,7.0,NNE,4.6,-,N/A,,Clear,20,2012-12-13 11:15:00
6:35 AM,19.4,17.6,93,30.41,8.0,NE,3.5,-,N/A,,Clear,40,2012-12-13 11:35:00
6:55 AM,19.4,15.8,86,30.41,8.0,NE,3.5,-,N/A,,Clear,40,2012-12-13 11:55:00
7:15 AM,19.4,15.8,86,30.41,8.0,NNE,4.6,-,N/A,,Clear,30,2012-12-13 12:15:00
7:35 AM,19.4,15.8,86,30.42,7.0,NE,3.5,-,N/A,,Clear,40,2012-12-13 12:35:00
7:55 AM,19.4,15.8,86,30.42,8.0,NE,3.5,-,N/A,,Clear,50,2012-12-13 12:55:00
8:15 AM,19.4,17.6,93,30.42,7.0,NNE,5.8,-,N/A,,Clear,30,2012-12-13 13:15:00
8:35 AM,23.0,19.4,86,30.42,9.0,NE,4.6,-,N/A,,Clear,50,2012-12-13 13:35:00
8:55 AM,24.8,21.2,86,30.42,10.0,NE,3.5,-,N/A,,Clear,40,2012-12-13 13:55:00
9:15 AM,26.6,21.2,80,30.43,10.0,East,4.6,-,N/A,,Clear,80,2012-12-13 14:15:00
9:35 AM,30.2,23.0,75,30.42,10.0,East,4.6,-,N/A,,Clear,90,2012-12-13 14:35:00
9:55 AM,30.2,21.2,69,30.43,10.0,ESE,5.8,-,N/A,,Clear,120,2012-12-13 14:55:00
10:15 AM,33.8,23.0,65,30.42,10.0,SE,4.6,-,N/A,,Clear,130,2012-12-13 15:15:00
10:35 AM,33.8,24.8,70,30.42,10.0,ESE,4.6,-,N/A,,Clear,120,2012-12-13 15:35:00
10:55 AM,35.6,21.2,56,30.42,10.0,ESE,5.8,-,N/A,,Clear,110,2012-12-13 15:55:00
11:15 AM,35.6,21.2,56,30.42,10.0,ESE,3.5,-,N/A,,Clear,110,2012-12-13 16:15:00
11:35 AM,37.4,21.2,52,30.42,10.0,South,3.5,-,N/A,,Clear,170,2012-12-13 16:35:00
11:55 AM,37.4,21.2,52,30.39,10.0,South,8.1,-,N/A,,Clear,180,2012-12-13 16:55:00
12:15 PM,39.2,21.2,49,30.37,10.0,ESE,8.1,-,N/A,,Clear,120,2012-12-13 17:15:00
12:35 PM,39.2,21.2,49,30.37,10.0,SE,8.1,-,N/A,,Clear,140,2012-12-13 17:35:00
12:55 PM,39.2,21.2,49,30.36,10.0,SSE,6.9,-,N/A,,Clear,160,2012-12-13 17:55:00
1:15 PM,39.2,21.2,49,30.35,10.0,SSE,8.1,-,N/A,,Clear,160,2012-12-13 18:15:00
1:35 PM,41.0,19.4,42,30.35,10.0,SSE,6.9,-,N/A,,Clear,150,2012-12-13 18:35:00
1:55 PM,41.0,19.4,42,30.34,10.0,South,8.1,-,N/A,,Clear,190,2012-12-13 18:55:00
2:15 PM,41.0,19.4,42,30.34,10.0,South,4.6,-,N/A,,Clear,190,2012-12-13 19:15:00
2:35 PM,41.0,19.4,42,30.34,10.0,South,3.5,-,N/A,,Clear,170,2012-12-13 19:35:00
2:55 PM,42.8,19.4,39,30.34,10.0,SSW,8.1,-,N/A,,Clear,200,2012-12-13 19:55:00
3:15 PM,42.8,19.4,39,30.33,10.0,SSE,4.6,-,N/A,,Clear,150,2012-12-13 20:15:00
3:35 PM,42.8,19.4,39,30.33,10.0,South,3.5,-,N/A,,Clear,190,2012-12-13 20:35:00
3:55 PM,42.8,17.6,36,30.33,10.0,South,3.5,-,N/A,,Clear,190,2012-12-13 20:55:00
4:15 PM,42.8,19.4,39,30.34,10.0,SSW,3.5,-,N/A,,Clear,210,2012-12-13 21:15:00
4:35 PM,41.0,15.8,36,30.34,10.0,SSW,3.5,-,N/A,,Clear,200,2012-12-13 21:35:00
4:55 PM,39.2,15.8,39,30.33,10.0,Calm,Calm,-,N/A,,Clear,0,2012-12-13 21:55:00
5:15 PM,37.4,17.6,45,30.31,10.0,SSE,3.5,-,N/A,,Clear,160,2012-12-13 22:15:00
5:35 PM,37.4,15.8,41,30.32,10.0,Calm,Calm,-,N/A,,Clear,0,2012-12-13 22:35:00
7:15 PM,33.8,17.6,52,30.30,10.0,Calm,Calm,-,N/A,,Clear,0,2012-12-14 00:15:00
8:15 PM,28.4,17.6,64,30.30,10.0,Calm,Calm,-,N/A,,Clear,0,2012-12-14 01:15:00
8:35 PM,28.4,17.6,64,30.30,10.0,Calm,Calm,-,N/A,,Clear,0,2012-12-14 01:35:00
8:55 PM,28.4,17.6,64,30.28,10.0,SE,3.5,-,N/A,,Clear,140,2012-12-14 01:55:00
9:15 PM,26.6,17.6,69,30.28,10.0,Calm,Calm,-,N/A,,Clear,0,2012-12-14 02:15:00
9:35 PM,28.4,19.4,69,30.28,10.0,Calm,Calm,-,N/A,,Clear,0,2012-12-14 02:35:00
9:55 PM,26.6,19.4,74,30.29,10.0,Calm,Calm,-,N/A,,Clear,0,2012-12-14 02:55:00
10:15 PM,26.6,19.4,74,30.29,10.0,Calm,Calm,-,N/A,,Clear,0,2012-12-14 03:15:00
10:35 PM,26.6,19.4,74,30.28,10.0,South,3.5,-,N/A,,Clear,170,2012-12-14 03:35:00
10:55 PM,26.6,19.4,74,30.28,10.0,Calm,Calm,-,N/A,,Clear,0,2012-12-14 03:55:00
11:15 PM,26.6,17.6,69,30.28,10.0,Calm,Calm,-,N/A,,Clear,0,2012-12-14 04:15:00
11:35 PM,26.6,19.4,74,30.27,10.0,South,5.8,-,N/A,,Clear,180,2012-12-14 04:35:00
11:55 PM,28.4,19.4,69,30.27,10.0,South,3.5,-,N/A,,Clear,180,2012-12-14 04:55:00